,,,PA_Meas_PMT16A,,PR_Meas_QMR101_102,,RH_Meas_QMH101,,SR_Meas_QMS101,,TA_Meas_QMH101,,GenWind,,GenWind,
date,time,status,PA,status,PR,status,RH,status,SR,status,TA,status,DirAvg,status,SpdAvg,
2010-07-15, 00:00:04,VALID,1003.48,VALID,0,VALID,104,VALID,0,VALID,24.6964,VALID,347,VALID,2.19766,
2010-07-15, 00:01:04,VALID,1003.53,VALID,0,VALID,104,VALID,0,VALID,24.6148,VALID,353,VALID,1.51016,
2010-07-15, 00:02:04,VALID,1003.54,VALID,0,VALID,104,VALID,0,VALID,24.5388,VALID,351,VALID,2.51211,
2010-07-15, 00:03:04,VALID,1003.54,VALID,0,VALID,104,VALID,0.100563,VALID,24.4609,VALID,358,VALID,2.40156,
2010-07-15, 00:04:04,VALID,1003.57,VALID,0,VALID,104,VALID,0,VALID,24.422,VALID,6,VALID,2.33945,
2010-07-15, 00:05:04,VALID,1003.57,VALID,0,VALID,104,VALID,0,VALID,24.3812,VALID,357,VALID,2.10391,
2010-07-15, 00:06:04,VALID,1003.62,VALID,0,VALID,104,VALID,0.100563,VALID,24.383,VALID,350,VALID,1.94805,
2010-07-15, 00:07:04,VALID,1003.63,VALID,0,VALID,104,VALID,0,VALID,24.3636,VALID,355,VALID,1.87422,
2010-07-15, 00:08:04,VALID,1003.63,VALID,0,VALID,104,VALID,0.100563,VALID,24.4025,VALID,3,VALID,1.84297,
2010-07-15, 00:09:04,VALID,1003.63,VALID,0,VALID,104,VALID,0.100563,VALID,24.3812,VALID,358,VALID,2.92578,
2010-07-15, 00:10:04,VALID,1003.61,VALID,0,VALID,104,VALID,0,VALID,24.3812,VALID,358,VALID,2.23242,
2010-07-15, 00:11:04,VALID,1003.55,VALID,0,VALID,104,VALID,0,VALID,24.3422,VALID,354,VALID,2.23086,
2010-07-15, 00:12:04,VALID,1003.54,VALID,0,VALID,104,VALID,0,VALID,24.383,VALID,6,VALID,1.91133,
2010-07-15, 00:13:04,VALID,1003.52,VALID,0,VALID,104,VALID,0.100563,VALID,24.3812,VALID,357,VALID,1.84023,
2010-07-15, 00:14:04,VALID,1003.49,VALID,0,VALID,104,VALID,0,VALID,24.4006,VALID,354,VALID,1.97617,
2010-07-15, 00:15:04,VALID,1003.48,VALID,0,VALID,104,VALID,0.100563,VALID,24.422,VALID,351,VALID,1.67734,
2010-07-15, 00:16:04,VALID,1003.44,VALID,0,VALID,104,VALID,0,VALID,24.4238,VALID,351,VALID,1.88203,
2010-07-15, 00:17:04,VALID,1003.43,VALID,0,VALID,104,VALID,0,VALID,24.4238,VALID,351,VALID,1.52734,
2010-07-15, 00:18:04,VALID,1003.41,VALID,0,VALID,104,VALID,0,VALID,24.4238,VALID,352,VALID,1.73398,
2010-07-15, 00:19:04,VALID,1003.36,VALID,0,VALID,104,VALID,0,VALID,24.4006,VALID,359,VALID,1.91953,
2010-07-15, 00:20:04,VALID,1003.34,VALID,0,VALID,104,VALID,0,VALID,24.4433,VALID,355,VALID,1.75508,
2010-07-15, 00:21:04,VALID,1003.34,VALID,0,VALID,104,VALID,0,VALID,24.422,VALID,360,VALID,1.46211,
2010-07-15, 00:22:04,VALID,1003.28,VALID,0,VALID,104,VALID,0,VALID,24.422,VALID,348,VALID,1.37773,
2010-07-15, 00:23:04,VALID,1003.24,VALID,0,VALID,104,VALID,0,VALID,24.4433,VALID,355,VALID,1.61289,
2010-07-15, 00:24:04,VALID,1003.25,VALID,0,VALID,104,VALID,0,VALID,24.4433,VALID,8,VALID,2.00898,
2010-07-15, 00:25:04,VALID,1003.18,VALID,0,VALID,104,VALID,0,VALID,24.4414,VALID,358,VALID,0.985156,
2010-07-15, 00:26:04,VALID,1003.17,VALID,0,VALID,104,VALID,0,VALID,24.4628,VALID,1,VALID,1.26445,
2010-07-15, 00:27:04,VALID,1003.12,VALID,0,VALID,104,VALID,0,VALID,24.4414,VALID,13,VALID,1.42148,
2010-07-15, 00:28:04,VALID,1003.11,VALID,0,VALID,104,VALID,0,VALID,24.4822,VALID,3,VALID,1.51641,
2010-07-15, 00:29:04,VALID,1003.12,VALID,0,VALID,104,VALID,0,VALID,24.4822,VALID,358,VALID,0.949219,
2010-07-15, 00:30:04,VALID,1003.11,VALID,0,VALID,104,VALID,0,VALID,24.5425,VALID,10,VALID,0.767187,
2010-07-15, 00:31:04,VALID,1003.1,VALID,0,VALID,104,VALID,0,VALID,24.5388,VALID,2,VALID,1.58516,
2010-07-15, 00:32:04,VALID,1003.13,VALID,0,VALID,104,VALID,0,VALID,24.5777,VALID,355,VALID,1.17461,
2010-07-15, 00:33:04,VALID,1003.09,VALID,0,VALID,104,VALID,0.100563,VALID,24.6166,VALID,356,VALID,1.79922,
2010-07-15, 00:34:04,VALID,1003.06,VALID,0,VALID,104,VALID,0,VALID,24.6945,VALID,349,VALID,1.70938,
2010-07-15, 00:35:04,VALID,1003.07,VALID,0,VALID,104,VALID,0,VALID,24.7335,VALID,354,VALID,1.59414,
2010-07-15, 00:36:04,VALID,1003.08,VALID,0,VALID,104,VALID,0,VALID,24.7919,VALID,357,VALID,1.06133,
2010-07-15, 00:37:04,VALID,1003.08,VALID,0,VALID,104,VALID,0,VALID,24.7919,VALID,15,VALID,0.802344,
2010-07-15, 00:38:04,VALID,1003.07,VALID,0,VALID,104,VALID,0,VALID,24.8113,VALID,26,VALID,0.8,
2010-07-15, 00:39:04,VALID,1003.07,VALID,0,VALID,104,VALID,0,VALID,24.8113,VALID,20,VALID,0.834766,
2010-07-15, 00:40:04,VALID,1003.06,VALID,0,VALID,104,VALID,0,VALID,24.8308,VALID,356,VALID,1.4668,
2010-07-15, 00:41:04,VALID,1003.02,VALID,0,VALID,104,VALID,0,VALID,24.8679,VALID,357,VALID,1.57148,
2010-07-15, 00:42:04,VALID,1003.02,VALID,0,VALID,104,VALID,0,VALID,24.969,VALID,18,VALID,1.4125,
2010-07-15, 00:43:04,VALID,1003.03,VALID,0,VALID,104,VALID,0,VALID,25.0858,VALID,4,VALID,1.41641,
2010-07-15, 00:44:04,VALID,1003.03,VALID,0,VALID,104,VALID,0,VALID,25.1034,VALID,351,VALID,1.38633,
2010-07-15, 00:45:04,VALID,1003,VALID,0,VALID,104,VALID,0,VALID,25.1423,VALID,354,VALID,1.99336,
2010-07-15, 00:46:04,VALID,1002.95,VALID,0,VALID,104,VALID,0,VALID,25.2007,VALID,26,VALID,0.96875,
2010-07-15, 00:47:04,VALID,1002.97,VALID,0,VALID,104,VALID,0,VALID,25.2202,VALID,48,VALID,0.761328,
2010-07-15, 00:48:04,VALID,1002.92,VALID,0,VALID,104,VALID,0.100563,VALID,25.2202,VALID,27,VALID,1.1207,
2010-07-15, 00:49:04,VALID,1002.93,VALID,0,VALID,104,VALID,0,VALID,25.2786,VALID,42,VALID,0.85,
2010-07-15, 00:50:04,VALID,1002.9,VALID,0,VALID,104,VALID,0.100563,VALID,25.3565,VALID,24,VALID,1.12305,
2010-07-15, 00:51:04,VALID,1002.9,VALID,0,VALID,104,VALID,0,VALID,25.4149,VALID,43,VALID,0.625391,
2010-07-15, 00:52:04,VALID,1002.86,VALID,0,VALID,104,VALID,0,VALID,25.4344,VALID,6,VALID,2.16758,
2010-07-15, 00:53:04,VALID,1002.83,VALID,0,VALID,104,VALID,0,VALID,25.5513,VALID,21,VALID,1.48281,
2010-07-15, 00:54:04,VALID,1002.82,VALID,0,VALID,103.753,VALID,0.100563,VALID,25.7051,VALID,18,VALID,2.01133,
2010-07-15, 00:55:04,VALID,1002.79,VALID,0,VALID,93.2859,VALID,0,VALID,25.8239,VALID,1,VALID,1.25898,
2010-07-15, 00:56:04,VALID,1002.77,VALID,0,VALID,90.9591,VALID,0.100563,VALID,25.8434,VALID,28,VALID,0.764844,
2010-07-15, 00:57:04,VALID,1002.78,VALID,0,VALID,90.8218,VALID,0,VALID,25.8044,VALID,30,VALID,0.833984,
2010-07-15, 00:58:04,VALID,1002.75,VALID,0,VALID,92.4773,VALID,0.100563,VALID,25.8629,VALID,32,VALID,1.58594,
2010-07-15, 00:59:04,VALID,1002.73,VALID,0,VALID,90.6235,VALID,0.100563,VALID,25.9602,VALID,19,VALID,1.0457,
2010-07-15, 01:00:04,VALID,1002.71,VALID,0,VALID,89.9216,VALID,0,VALID,25.9388,VALID,2,VALID,1.54336,
2010-07-15, 01:01:04,VALID,1002.7,VALID,0,VALID,89.9903,VALID,0,VALID,25.9817,VALID,35,VALID,2.63125,
2010-07-15, 01:02:04,VALID,1002.72,VALID,0,VALID,89.6622,VALID,0,VALID,26.0401,VALID,357,VALID,1.41992,
2010-07-15, 01:03:04,VALID,1002.72,VALID,0,VALID,89.1206,VALID,0,VALID,26.0401,VALID,360,VALID,0.779688,
2010-07-15, 01:04:04,VALID,1002.77,VALID,0,VALID,89.2045,VALID,0,VALID,25.9797,VALID,31,VALID,0.692578,
2010-07-15, 01:05:04,VALID,1002.76,VALID,0,VALID,89.708,VALID,0,VALID,25.9602,VALID,34,VALID,1.04375,
2010-07-15, 01:06:04,VALID,1002.79,VALID,0,VALID,89.8377,VALID,0,VALID,25.9817,VALID,349,VALID,1.59492,
2010-07-15, 01:07:04,VALID,1002.82,VALID,0,VALID,89.8224,VALID,0,VALID,26.0012,VALID,10,VALID,1.08711,
2010-07-15, 01:08:04,VALID,1002.8,VALID,0,VALID,89.708,VALID,0,VALID,26.0401,VALID,16,VALID,1.16133,
2010-07-15, 01:09:04,VALID,1002.84,VALID,0,VALID,89.7385,VALID,0,VALID,26.0187,VALID,21,VALID,1.36016,
2010-07-15, 01:10:04,VALID,1002.78,VALID,0,VALID,89.6165,VALID,0,VALID,26.0401,VALID,21,VALID,1.93594,
2010-07-15, 01:11:04,VALID,1002.77,VALID,0,VALID,89.3723,VALID,0,VALID,26.0791,VALID,27,VALID,1.08242,
2010-07-15, 01:12:04,VALID,1002.8,VALID,0,VALID,89.3037,VALID,0,VALID,26.0596,VALID,354,VALID,1.65898,
2010-07-15, 01:13:04,VALID,1002.76,VALID,0,VALID,89.2579,VALID,0,VALID,25.9992,VALID,19,VALID,0.838281,
2010-07-15, 01:14:04,VALID,1002.76,VALID,0,VALID,89.5707,VALID,0,VALID,26.0012,VALID,33,VALID,1.45195,
2010-07-15, 01:15:04,VALID,1002.75,VALID,0,VALID,89.2121,VALID,0,VALID,26.0576,VALID,356,VALID,1.71055,
2010-07-15, 01:16:04,VALID,1002.7,VALID,0,VALID,88.8231,VALID,0,VALID,26.12,VALID,9,VALID,0.98125,
2010-07-15, 01:17:04,VALID,1002.66,VALID,0,VALID,88.8154,VALID,0,VALID,26.0596,VALID,359,VALID,0.905859,
2010-07-15, 01:18:04,VALID,1002.62,VALID,0,VALID,88.762,VALID,0,VALID,26.081,VALID,23,VALID,0.808203,
2010-07-15, 01:19:04,VALID,1002.6,VALID,0,VALID,88.8002,VALID,0,VALID,26.0401,VALID,13,VALID,2.36016,
2010-07-15, 01:20:04,VALID,1002.63,VALID,0,VALID,88.6323,VALID,0,VALID,26.0596,VALID,13,VALID,0.701953,
2010-07-15, 01:21:04,VALID,1002.65,VALID,0,VALID,88.8078,VALID,0,VALID,26.0012,VALID,4,VALID,0.941016,
2010-07-15, 01:22:04,VALID,1002.61,VALID,0,VALID,88.9527,VALID,0,VALID,25.9602,VALID,21,VALID,0.517187,
2010-07-15, 01:23:04,VALID,1002.62,VALID,0,VALID,89.4868,VALID,0,VALID,25.8843,VALID,22,VALID,1.23086,
2010-07-15, 01:24:04,VALID,1002.61,VALID,0,VALID,89.975,VALID,0,VALID,25.8629,VALID,20,VALID,0.573438,
2010-07-15, 01:25:04,VALID,1002.62,VALID,0,VALID,90.0742,VALID,0,VALID,25.8259,VALID,19,VALID,1.36055,
2010-07-15, 01:26:04,VALID,1002.59,VALID,0,VALID,90.6616,VALID,0,VALID,25.8259,VALID,360,VALID,0.871875,
2010-07-15, 01:27:04,VALID,1002.6,VALID,0,VALID,91.1041,VALID,0,VALID,25.7869,VALID,22,VALID,0.883984,
2010-07-15, 01:28:04,VALID,1002.64,VALID,0,VALID,91.8059,VALID,0,VALID,25.7674,VALID,22,VALID,1.00898,
2010-07-15, 01:29:04,VALID,1002.58,VALID,0,VALID,93.9802,VALID,0,VALID,25.7674,VALID,23,VALID,1.3293,
2010-07-15, 01:30:04,VALID,1002.58,VALID,0,VALID,92.4773,VALID,0,VALID,25.7889,VALID,10,VALID,0.759766,
2010-07-15, 01:31:04,VALID,1002.57,VALID,0,VALID,92.2484,VALID,0.100563,VALID,25.7265,VALID,6,VALID,0.620313,
2010-07-15, 01:32:04,VALID,1002.56,VALID,0,VALID,94.0259,VALID,0,VALID,25.6681,VALID,6,VALID,0.885547,
2010-07-15, 01:33:04,VALID,1002.51,VALID,0,VALID,99.5416,VALID,0,VALID,25.6681,VALID,12,VALID,1.37656,
2010-07-15, 01:34:04,VALID,1002.51,VALID,0,VALID,96.7113,VALID,0,VALID,25.6486,VALID,355,VALID,0.96875,
2010-07-15, 01:35:04,VALID,1002.49,VALID,0,VALID,97.52,VALID,0,VALID,25.6292,VALID,5,VALID,1.39492,
2010-07-15, 01:36:04,VALID,1002.44,VALID,0,VALID,99,VALID,0,VALID,25.6097,VALID,360,VALID,0.972656,
2010-07-15, 01:37:04,VALID,1002.49,VALID,0,VALID,101.334,VALID,0,VALID,25.6097,VALID,4,VALID,2.56992,
2010-07-15, 01:38:04,VALID,1002.47,VALID,0,VALID,101.464,VALID,0,VALID,25.6876,VALID,3,VALID,2.5168,
2010-07-15, 01:39:04,VALID,1002.47,VALID,0,VALID,95.7424,VALID,0,VALID,25.7635,VALID,5,VALID,1.37461,
2010-07-15, 01:40:04,VALID,1002.47,VALID,0,VALID,91.8975,VALID,0,VALID,25.7674,VALID,2,VALID,1.44844,
2010-07-15, 01:41:04,VALID,1002.45,VALID,0,VALID,91.8517,VALID,0,VALID,25.7071,VALID,353,VALID,1.06602,
2010-07-15, 01:42:04,VALID,1002.5,VALID,0,VALID,93.5377,VALID,0,VALID,25.6486,VALID,14,VALID,1.16875,
2010-07-15, 01:43:04,VALID,1002.51,VALID,0,VALID,100.541,VALID,0,VALID,25.6311,VALID,16,VALID,1.65859,
2010-07-15, 01:44:04,VALID,1002.52,VALID,0,VALID,101.914,VALID,0,VALID,25.6895,VALID,360,VALID,1.34766,
2010-07-15, 01:45:04,VALID,1002.49,VALID,0,VALID,98.9389,VALID,0,VALID,25.7071,VALID,347,VALID,1.83711,
2010-07-15, 01:46:04,VALID,1002.52,VALID,0,VALID,97.7107,VALID,0,VALID,25.6895,VALID,1,VALID,1.79141,
2010-07-15, 01:47:04,VALID,1002.49,VALID,0,VALID,98.6948,VALID,0,VALID,25.6895,VALID,348,VALID,2.07773,
2010-07-15, 01:48:04,VALID,1002.51,VALID,0,VALID,95.3152,VALID,0,VALID,25.709,VALID,356,VALID,1.92461,
2010-07-15, 01:49:04,VALID,1002.49,VALID,0,VALID,93.1029,VALID,0,VALID,25.6915,VALID,349,VALID,1.35039,
2010-07-15, 01:50:04,VALID,1002.5,VALID,0,VALID,93.9268,VALID,0,VALID,25.6915,VALID,357,VALID,1.51367,
2010-07-15, 01:51:04,VALID,1002.54,VALID,0,VALID,96.1773,VALID,0,VALID,25.5727,VALID,1,VALID,1.2625,
2010-07-15, 01:52:04,VALID,1002.53,VALID,0,VALID,99.5874,VALID,0,VALID,25.5337,VALID,6,VALID,2.14023,
2010-07-15, 01:53:04,VALID,1002.55,VALID,0,VALID,101.319,VALID,0,VALID,25.5142,VALID,360,VALID,1.78359,
2010-07-15, 01:54:04,VALID,1002.55,VALID,0,VALID,102.09,VALID,0,VALID,25.5142,VALID,6,VALID,1.87422,
2010-07-15, 01:55:04,VALID,1002.55,VALID,0,VALID,102.792,VALID,0,VALID,25.5162,VALID,356,VALID,1.82422,
2010-07-15, 01:56:04,VALID,1002.56,VALID,0,VALID,103.112,VALID,0,VALID,25.4967,VALID,20,VALID,0.664063,
2010-07-15, 01:57:04,VALID,1002.54,VALID,0,VALID,103.966,VALID,0,VALID,25.4753,VALID,5,VALID,1.0832,
2010-07-15, 01:58:04,VALID,1002.6,VALID,0,VALID,104,VALID,0,VALID,25.4558,VALID,31,VALID,1.15508,
2010-07-15, 01:59:04,VALID,1002.63,VALID,0,VALID,104,VALID,0,VALID,25.4967,VALID,13,VALID,2.03477,
2010-07-15, 02:00:04,VALID,1002.64,VALID,0.5,VALID,104,VALID,0,VALID,25.4948,VALID,19,VALID,1.27969,
2010-07-15, 02:01:04,VALID,1002.63,VALID,0.5,VALID,104,VALID,0,VALID,25.4928,VALID,89,VALID,1.88672,
2010-07-15, 02:02:04,VALID,1002.58,VALID,0.5,VALID,104,VALID,0,VALID,25.4948,VALID,8,VALID,0.758594,
2010-07-15, 02:03:04,VALID,1002.5,VALID,0.5,VALID,104,VALID,0,VALID,25.4149,VALID,30,VALID,0.795313,
2010-07-15, 02:04:04,VALID,1002.47,VALID,0,VALID,104,VALID,0,VALID,25.3565,VALID,101,VALID,0.440625,
2010-07-15, 02:05:04,VALID,1002.48,VALID,0.5,VALID,104,VALID,0,VALID,25.3176,VALID,104,VALID,0.452344,
2010-07-15, 02:06:04,VALID,1002.46,VALID,0,VALID,104,VALID,0,VALID,25.2786,VALID,143,VALID,0,
2010-07-15, 02:07:04,VALID,1002.43,VALID,0,VALID,104,VALID,0,VALID,25.2592,VALID,154,VALID,0,
2010-07-15, 02:08:04,VALID,1002.4,VALID,0.5,VALID,104,VALID,0,VALID,25.2611,VALID,154,VALID,0,
2010-07-15, 02:09:04,VALID,1002.42,VALID,0,VALID,104,VALID,0,VALID,25.2007,VALID,136,VALID,0,
2010-07-15, 02:10:04,VALID,1002.44,VALID,0,VALID,104,VALID,0,VALID,25.1618,VALID,105,VALID,0.814062,
2010-07-15, 02:11:04,VALID,1002.49,VALID,0,VALID,104,VALID,0,VALID,25.1832,VALID,103,VALID,1.26094,
2010-07-15, 02:12:04,VALID,1002.49,VALID,0,VALID,104,VALID,0,VALID,25.1034,VALID,97,VALID,1.39375,
2010-07-15, 02:13:04,VALID,1002.51,VALID,0,VALID,104,VALID,0,VALID,25.0858,VALID,77,VALID,0.664453,
2010-07-15, 02:14:04,VALID,1002.54,VALID,0,VALID,104,VALID,0,VALID,25.0663,VALID,35,VALID,0.569922,
2010-07-15, 02:15:04,VALID,1002.55,VALID,0,VALID,104,VALID,0,VALID,25.0255,VALID,38,VALID,0.471484,
2010-07-15, 02:16:04,VALID,1002.63,VALID,0,VALID,104,VALID,0,VALID,24.9866,VALID,95,VALID,0.608203,
2010-07-15, 02:17:04,VALID,1002.65,VALID,0,VALID,104,VALID,0,VALID,24.9671,VALID,106,VALID,0.405078,
2010-07-15, 02:18:04,VALID,1002.6,VALID,0,VALID,104,VALID,0,VALID,24.969,VALID,21,VALID,0.804688,
2010-07-15, 02:19:04,VALID,1002.55,VALID,0,VALID,104,VALID,0,VALID,24.8892,VALID,80,VALID,1.24414,
2010-07-15, 02:20:04,VALID,1002.49,VALID,0,VALID,104,VALID,0,VALID,24.8697,VALID,15,VALID,0.976953,
2010-07-15, 02:21:04,VALID,1002.42,VALID,0,VALID,104,VALID,0,VALID,24.8522,VALID,13,VALID,0.703906,
2010-07-15, 02:22:04,VALID,1002.43,VALID,0,VALID,104,VALID,0,VALID,24.8132,VALID,114,VALID,0.996094,
2010-07-15, 02:23:04,VALID,1002.4,VALID,0,VALID,104,VALID,0,VALID,24.7724,VALID,108,VALID,0.489453,
2010-07-15, 02:24:04,VALID,1002.44,VALID,0,VALID,104,VALID,0,VALID,24.7529,VALID,105,VALID,0.00585938,
2010-07-15, 02:25:04,VALID,1002.38,VALID,0,VALID,104,VALID,0,VALID,24.714,VALID,55,VALID,0.638281,
2010-07-15, 02:26:04,VALID,1002.4,VALID,0,VALID,104,VALID,0,VALID,24.675,VALID,87,VALID,0.401953,
2010-07-15, 02:27:04,VALID,1002.39,VALID,0,VALID,104,VALID,0,VALID,24.6556,VALID,73,VALID,0,
2010-07-15, 02:28:04,VALID,1002.38,VALID,0,VALID,104,VALID,0,VALID,24.6361,VALID,350,VALID,0.510547,
2010-07-15, 02:29:04,VALID,1002.41,VALID,0,VALID,104,VALID,0,VALID,24.6185,VALID,358,VALID,0.0203125,
2010-07-15, 02:30:04,VALID,1002.44,VALID,0,VALID,104,VALID,0,VALID,24.5972,VALID,358,VALID,0.149609,
2010-07-15, 02:31:04,VALID,1002.52,VALID,0,VALID,104,VALID,0,VALID,24.5796,VALID,38,VALID,0.409766,
2010-07-15, 02:32:04,VALID,1002.54,VALID,0,VALID,104,VALID,0,VALID,24.5601,VALID,91,VALID,0.857422,
2010-07-15, 02:33:04,VALID,1002.56,VALID,0,VALID,104,VALID,0,VALID,24.5601,VALID,120,VALID,1.00859,
2010-07-15, 02:34:04,VALID,1002.58,VALID,0,VALID,104,VALID,0,VALID,24.5212,VALID,126,VALID,0.931641,
2010-07-15, 02:35:04,VALID,1002.58,VALID,0,VALID,104,VALID,0,VALID,24.4238,VALID,109,VALID,1.11211,
2010-07-15, 02:36:04,VALID,1002.54,VALID,0,VALID,104,VALID,0,VALID,24.4043,VALID,91,VALID,1.17031,
2010-07-15, 02:37:04,VALID,1002.55,VALID,0,VALID,104,VALID,0,VALID,24.3459,VALID,43,VALID,0.650391,
2010-07-15, 02:38:04,VALID,1002.6,VALID,0,VALID,104,VALID,0,VALID,24.3459,VALID,92,VALID,0.432422,
2010-07-15, 02:39:04,VALID,1002.68,VALID,0,VALID,104,VALID,0,VALID,24.3441,VALID,73,VALID,0.33125,
2010-07-15, 02:40:04,VALID,1002.67,VALID,0,VALID,104,VALID,0,VALID,24.3459,VALID,15,VALID,1.03906,
2010-07-15, 02:41:04,VALID,1002.64,VALID,0,VALID,104,VALID,0,VALID,24.3246,VALID,26,VALID,0.768359,
2010-07-15, 02:42:04,VALID,1002.64,VALID,0,VALID,104,VALID,0,VALID,24.3478,VALID,48,VALID,0.279687,
2010-07-15, 02:43:04,VALID,1002.67,VALID,0,VALID,104,VALID,0,VALID,24.3265,VALID,24,VALID,0.0125,
2010-07-15, 02:44:04,VALID,1002.65,VALID,0,VALID,104,VALID,0,VALID,24.3052,VALID,305,VALID,0.286328,
2010-07-15, 02:45:04,VALID,1002.66,VALID,0,VALID,104,VALID,0,VALID,24.307,VALID,340,VALID,0.0121094,
2010-07-15, 02:46:04,VALID,1002.63,VALID,0,VALID,104,VALID,0.100563,VALID,24.3052,VALID,340,VALID,0,
2010-07-15, 02:47:04,VALID,1002.61,VALID,0,VALID,104,VALID,0,VALID,24.2468,VALID,344,VALID,1.08984,
2010-07-15, 02:48:04,VALID,1002.62,VALID,0,VALID,104,VALID,0.100563,VALID,24.2662,VALID,341,VALID,0.785547,
2010-07-15, 02:49:04,VALID,1002.62,VALID,0,VALID,104,VALID,0.100563,VALID,24.2857,VALID,3,VALID,0.875,
2010-07-15, 02:50:04,VALID,1002.63,VALID,0,VALID,104,VALID,0.100563,VALID,24.2839,VALID,349,VALID,1.17109,
2010-07-15, 02:51:04,VALID,1002.56,VALID,0,VALID,104,VALID,0.100563,VALID,24.3441,VALID,351,VALID,0.944141,
2010-07-15, 02:52:04,VALID,1002.52,VALID,0,VALID,104,VALID,0.100563,VALID,24.3246,VALID,331,VALID,1.00781,
2010-07-15, 02:53:04,VALID,1002.49,VALID,0,VALID,104,VALID,0,VALID,24.3052,VALID,345,VALID,0.914844,
2010-07-15, 02:54:04,VALID,1002.46,VALID,0,VALID,104,VALID,0.100563,VALID,24.2857,VALID,343,VALID,0.689062,
2010-07-15, 02:55:04,VALID,1002.46,VALID,0,VALID,104,VALID,0,VALID,24.2449,VALID,339,VALID,1.01367,
2010-07-15, 02:56:04,VALID,1002.42,VALID,0,VALID,104,VALID,0,VALID,24.2468,VALID,344,VALID,0.801953,
2010-07-15, 02:57:04,VALID,1002.41,VALID,0,VALID,104,VALID,0,VALID,24.2273,VALID,325,VALID,0.0375,
2010-07-15, 02:58:04,VALID,1002.41,VALID,0,VALID,104,VALID,0,VALID,24.2078,VALID,313,VALID,0.427344,
2010-07-15, 02:59:04,VALID,1002.44,VALID,0,VALID,104,VALID,0.100563,VALID,24.1865,VALID,282,VALID,0.369922,
2010-07-15, 03:00:04,VALID,1002.42,VALID,0,VALID,104,VALID,0,VALID,24.1884,VALID,283,VALID,0,
2010-07-15, 03:01:04,VALID,1002.41,VALID,0,VALID,104,VALID,0,VALID,24.1884,VALID,283,VALID,0,
2010-07-15, 03:02:04,VALID,1002.4,VALID,0,VALID,104,VALID,0.100563,VALID,24.1689,VALID,283,VALID,0,
2010-07-15, 03:03:04,VALID,1002.42,VALID,0,VALID,104,VALID,0.100563,VALID,24.1476,VALID,283,VALID,0,
2010-07-15, 03:04:04,VALID,1002.48,VALID,0,VALID,104,VALID,0.100563,VALID,24.1689,VALID,284,VALID,0.366016,
2010-07-15, 03:05:04,VALID,1002.5,VALID,0,VALID,104,VALID,0,VALID,24.1494,VALID,286,VALID,0.489844,
2010-07-15, 03:06:04,VALID,1002.53,VALID,0,VALID,104,VALID,0.100563,VALID,24.1689,VALID,286,VALID,0.0289063,
2010-07-15, 03:07:04,VALID,1002.57,VALID,0,VALID,104,VALID,0,VALID,24.1689,VALID,286,VALID,0,
2010-07-15, 03:08:04,VALID,1002.56,VALID,0,VALID,104,VALID,0,VALID,24.1689,VALID,296,VALID,1.00664,
2010-07-15, 03:09:04,VALID,1002.57,VALID,0,VALID,104,VALID,0.100563,VALID,24.1476,VALID,293,VALID,0.104297,
2010-07-15, 03:10:04,VALID,1002.56,VALID,0,VALID,104,VALID,0.100563,VALID,24.1494,VALID,281,VALID,0.398828,
2010-07-15, 03:11:04,VALID,1002.56,VALID,0,VALID,104,VALID,0.100563,VALID,24.1494,VALID,244,VALID,0.580469,
2010-07-15, 03:12:04,VALID,1002.55,VALID,0,VALID,104,VALID,0.100563,VALID,24.1087,VALID,244,VALID,0.509766,
2010-07-15, 03:13:04,VALID,1002.55,VALID,0,VALID,104,VALID,0.100563,VALID,24.13,VALID,243,VALID,0.220703,
2010-07-15, 03:14:04,VALID,1002.53,VALID,0,VALID,104,VALID,0.100563,VALID,24.0892,VALID,243,VALID,0,
2010-07-15, 03:15:04,VALID,1002.51,VALID,0,VALID,104,VALID,0.100563,VALID,24.0892,VALID,262,VALID,0.237891,
2010-07-15, 03:16:04,VALID,1002.47,VALID,0,VALID,104,VALID,0,VALID,24.091,VALID,295,VALID,0.624219,
2010-07-15, 03:17:04,VALID,1002.45,VALID,0,VALID,104,VALID,0,VALID,24.0929,VALID,293,VALID,0.123828,
2010-07-15, 03:18:04,VALID,1002.41,VALID,0,VALID,104,VALID,0,VALID,24.091,VALID,331,VALID,0.588281,
2010-07-15, 03:19:04,VALID,1002.39,VALID,0,VALID,104,VALID,0,VALID,24.091,VALID,334,VALID,0.357031,
2010-07-15, 03:20:04,VALID,1002.37,VALID,0,VALID,104,VALID,0,VALID,24.091,VALID,334,VALID,0,
2010-07-15, 03:21:04,VALID,1002.37,VALID,0,VALID,104,VALID,0,VALID,24.0716,VALID,15,VALID,0,
2010-07-15, 03:22:04,VALID,1002.28,VALID,0,VALID,104,VALID,0,VALID,24.0734,VALID,17,VALID,0,
2010-07-15, 03:23:04,VALID,1002.27,VALID,0,VALID,104,VALID,0,VALID,24.0539,VALID,17,VALID,0,
2010-07-15, 03:24:04,VALID,1002.27,VALID,0,VALID,104,VALID,0,VALID,24.0345,VALID,17,VALID,0,
2010-07-15, 03:25:04,VALID,1002.31,VALID,0,VALID,104,VALID,0,VALID,24.015,VALID,17,VALID,0,
2010-07-15, 03:26:04,VALID,1002.37,VALID,0,VALID,104,VALID,0,VALID,24.015,VALID,17,VALID,0,
2010-07-15, 03:27:04,VALID,1002.4,VALID,0,VALID,104,VALID,0,VALID,23.9937,VALID,17,VALID,0,
2010-07-15, 03:28:04,VALID,1002.47,VALID,0,VALID,104,VALID,0,VALID,23.9955,VALID,18,VALID,0,
2010-07-15, 03:29:04,VALID,1002.53,VALID,0,VALID,104,VALID,0,VALID,23.9742,VALID,18,VALID,0,
2010-07-15, 03:30:04,VALID,1002.59,VALID,0,VALID,104,VALID,0,VALID,23.9761,VALID,63,VALID,0.515234,
2010-07-15, 03:31:04,VALID,1002.66,VALID,0,VALID,104,VALID,0,VALID,23.9761,VALID,91,VALID,0.627344,
2010-07-15, 03:32:04,VALID,1002.68,VALID,0,VALID,104,VALID,0,VALID,23.9548,VALID,91,VALID,0.413672,
2010-07-15, 03:33:04,VALID,1002.69,VALID,0,VALID,104,VALID,0,VALID,23.9761,VALID,91,VALID,0.422656,
2010-07-15, 03:34:04,VALID,1002.71,VALID,0,VALID,104,VALID,0,VALID,23.9761,VALID,94,VALID,0.476953,
2010-07-15, 03:35:04,VALID,1002.67,VALID,0,VALID,104,VALID,0,VALID,23.9761,VALID,95,VALID,0.0605469,
2010-07-15, 03:36:04,VALID,1002.69,VALID,0,VALID,104,VALID,0,VALID,23.9742,VALID,201,VALID,1.16484,
2010-07-15, 03:37:04,VALID,1002.62,VALID,0,VALID,104,VALID,0,VALID,23.9742,VALID,212,VALID,0.61875,
2010-07-15, 03:38:04,VALID,1002.59,VALID,0,VALID,104,VALID,0,VALID,23.9742,VALID,211,VALID,0.142969,
2010-07-15, 03:39:04,VALID,1002.55,VALID,0,VALID,104,VALID,0,VALID,23.9955,VALID,211,VALID,0,
2010-07-15, 03:40:04,VALID,1002.53,VALID,0,VALID,104,VALID,0,VALID,23.9335,VALID,211,VALID,0.269531,
2010-07-15, 03:41:04,VALID,1002.52,VALID,0,VALID,104,VALID,0,VALID,23.9761,VALID,211,VALID,0.245703,
2010-07-15, 03:42:04,VALID,1002.5,VALID,0,VALID,104,VALID,0,VALID,23.9548,VALID,211,VALID,0.319141,
2010-07-15, 03:43:04,VALID,1002.47,VALID,0,VALID,104,VALID,0,VALID,23.9353,VALID,211,VALID,0.546484,
2010-07-15, 03:44:04,VALID,1002.54,VALID,0,VALID,104,VALID,0,VALID,23.9548,VALID,211,VALID,0.522266,
2010-07-15, 03:45:04,VALID,1002.64,VALID,0,VALID,104,VALID,0,VALID,23.9761,VALID,211,VALID,0.623828,
2010-07-15, 03:46:04,VALID,1002.72,VALID,0,VALID,104,VALID,0,VALID,23.9353,VALID,210,VALID,0.548828,
2010-07-15, 03:47:04,VALID,1002.85,VALID,0,VALID,104,VALID,0,VALID,23.9353,VALID,70,VALID,0.508203,
2010-07-15, 03:48:04,VALID,1003.03,VALID,0,VALID,104,VALID,0,VALID,23.9566,VALID,85,VALID,0.534375,
2010-07-15, 03:49:04,VALID,1003.29,VALID,0,VALID,104,VALID,0,VALID,23.9353,VALID,79,VALID,0.90625,
2010-07-15, 03:50:04,VALID,1003.55,VALID,0,VALID,104,VALID,0,VALID,23.8964,VALID,97,VALID,2.35352,
2010-07-15, 03:51:04,VALID,1003.76,VALID,0.5,INVALID,52.3417,VALID,0,VALID,23.9466,VALID,114,VALID,3.46797,
2010-07-15, 03:52:04,VALID,1003.75,VALID,2.5,VALID,52.3799,VALID,0,VALID,23.8682,VALID,68,VALID,1.48516,